Time,TemperatureF,DewpointF,PressureIn,WindDirection,WindDirectionDegrees,WindSpeedMPH,WindSpeedGustMPH,Humidity,HourlyPrecipIn,Conditions,Clouds,dailyrainin,SoftwareType,DateUTC
2013-03-29 00:08:00,30.4,24.7,29.91,ESE,112,0.0,-999.0,79,-99.99,,,0.00,Acu-Link.com,2013-03-29 06:08:00,
2013-03-29 00:23:00,29.5,24.1,29.91,West,270,0.0,-999.0,80,-99.99,,,0.00,Acu-Link.com,2013-03-29 06:23:00,
2013-03-29 00:38:00,28.9,23.5,29.90,ENE,67,0.0,-999.0,80,-99.99,,,0.00,Acu-Link.com,2013-03-29 06:38:00,
2013-03-29 00:53:00,28.6,23.2,29.90,North,0,0.0,-999.0,80,-99.99,,,0.00,Acu-Link.com,2013-03-29 06:53:00,
2013-03-29 01:09:00,27.1,22.1,29.90,ENE,67,0.0,-999.0,81,-99.99,,,0.00,Acu-Link.com,2013-03-29 07:09:00,
2013-03-29 01:24:00,26.2,21.5,29.90,West,270,0.0,-999.0,82,-99.99,,,0.00,Acu-Link.com,2013-03-29 07:24:00,
2013-03-29 01:39:00,25.7,21.3,29.90,West,270,0.0,-999.0,83,-99.99,,,0.00,Acu-Link.com,2013-03-29 07:39:00,
2013-03-29 01:54:00,25.9,22.0,29.89,West,270,0.0,-999.0,85,-99.99,,,0.00,Acu-Link.com,2013-03-29 07:54:00,
2013-03-29 02:10:00,25.5,21.4,29.89,West,270,0.0,-999.0,84,-99.99,,,0.00,Acu-Link.com,2013-03-29 08:10:00,
2013-03-29 02:25:00,25.5,21.4,29.89,WNW,292,0.0,-999.0,84,-99.99,,,0.00,Acu-Link.com,2013-03-29 08:25:00,
2013-03-29 02:40:00,25.3,21.2,29.88,WNW,292,0.0,-999.0,84,-99.99,,,0.00,Acu-Link.com,2013-03-29 08:40:00,
2013-03-29 02:56:00,25.2,21.1,29.89,West,270,0.0,-999.0,84,-99.99,,,0.00,Acu-Link.com,2013-03-29 08:56:00,
2013-03-29 03:11:00,24.8,20.7,29.88,WSW,247,0.0,-999.0,84,-99.99,,,0.00,Acu-Link.com,2013-03-29 09:11:00,
2013-03-29 03:26:00,24.8,20.7,29.88,ESE,112,0.0,-999.0,84,-99.99,,,0.00,Acu-Link.com,2013-03-29 09:26:00,
2013-03-29 03:56:00,24.6,20.5,29.88,WSW,247,0.0,-999.0,84,-99.99,,,0.00,Acu-Link.com,2013-03-29 09:56:00,
2013-03-29 04:11:00,24.8,20.7,29.88,North,0,0.0,-999.0,84,-99.99,,,0.00,Acu-Link.com,2013-03-29 10:11:00,
2013-03-29 04:27:00,26.6,20.7,29.88,NE,45,0.0,-999.0,78,-99.99,,,0.00,Acu-Link.com,2013-03-29 10:27:00,
2013-03-29 04:42:00,27.5,20.9,29.88,WNW,292,0.0,-999.0,76,-99.99,,,0.00,Acu-Link.com,2013-03-29 10:42:00,
2013-03-29 04:57:00,26.2,20.6,29.88,ENE,67,0.0,-999.0,79,-99.99,,,0.00,Acu-Link.com,2013-03-29 10:57:00,
2013-03-29 05:12:00,27.1,19.9,29.87,SW,225,0.0,-999.0,74,-99.99,,,0.00,Acu-Link.com,2013-03-29 11:12:00,
2013-03-29 05:28:00,27.0,20.8,29.87,NNW,337,0.0,-999.0,77,-99.99,,,0.00,Acu-Link.com,2013-03-29 11:28:00,
2013-03-29 05:43:00,29.1,21.9,29.87,South,180,0.0,-999.0,74,-99.99,,,0.00,Acu-Link.com,2013-03-29 11:43:00,
2013-03-29 05:58:00,31.3,22.3,29.87,WSW,247,0.0,-999.0,69,-99.99,,,0.00,Acu-Link.com,2013-03-29 11:58:00,
2013-03-29 06:14:00,34.5,22.5,29.88,South,180,0.0,-999.0,61,-99.99,,,0.00,Acu-Link.com,2013-03-29 12:14:00,
2013-03-29 06:29:00,35.6,22.3,29.87,WNW,292,1.7,-999.0,58,-99.99,,,0.00,Acu-Link.com,2013-03-29 12:29:00,
2013-03-29 06:44:00,35.4,22.1,29.88,West,270,0.0,-999.0,58,-99.99,,,0.00,Acu-Link.com,2013-03-29 12:44:00,
2013-03-29 07:00:00,35.4,22.5,29.89,NNW,337,0.0,-999.0,59,-99.99,,,0.00,Acu-Link.com,2013-03-29 13:00:00,
2013-03-29 07:15:00,35.6,22.3,29.89,ESE,112,0.0,-999.0,58,-99.99,,,0.00,Acu-Link.com,2013-03-29 13:15:00,
2013-03-29 07:30:00,35.8,22.5,29.89,NE,45,0.0,-999.0,58,-99.99,,,0.00,Acu-Link.com,2013-03-29 13:30:00,
2013-03-29 07:46:00,36.3,23.0,29.89,West,270,1.7,-999.0,58,-99.99,,,0.00,Acu-Link.com,2013-03-29 13:46:00,
2013-03-29 08:01:00,36.3,23.4,29.88,West,270,0.0,-999.0,59,-99.99,,,0.00,Acu-Link.com,2013-03-29 14:01:00,
2013-03-29 08:16:00,36.7,23.3,29.88,South,180,0.0,-999.0,58,-99.99,,,0.00,Acu-Link.com,2013-03-29 14:16:00,
2013-03-29 08:31:00,37.0,23.6,29.87,North,0,0.0,-999.0,58,-99.99,,,0.00,Acu-Link.com,2013-03-29 14:31:00,
2013-03-29 09:01:00,39.0,23.8,29.89,WNW,292,0.0,-999.0,54,-99.99,,,0.00,Acu-Link.com,2013-03-29 15:01:00,
2013-03-29 09:17:00,38.8,24.0,29.90,SSW,202,1.7,-999.0,55,-99.99,,,0.00,Acu-Link.com,2013-03-29 15:17:00,
2013-03-29 09:32:00,39.0,24.2,29.91,SW,225,1.7,-999.0,55,-99.99,,,0.00,Acu-Link.com,2013-03-29 15:32:00,
2013-03-29 09:47:00,40.3,24.1,29.90,SSW,202,0.0,-999.0,52,-99.99,,,0.00,Acu-Link.com,2013-03-29 15:47:00,
2013-03-29 10:03:00,41.2,24.5,29.88,North,0,1.1,-999.0,51,-99.99,,,0.00,Acu-Link.com,2013-03-29 16:03:00,
2013-03-29 10:18:00,42.6,24.8,29.88,NNW,337,1.1,-999.0,49,-99.99,,,0.00,Acu-Link.com,2013-03-29 16:18:00,
2013-03-29 10:33:00,43.3,24.9,29.87,South,180,0.0,-999.0,48,-99.99,,,0.00,Acu-Link.com,2013-03-29 16:33:00,
2013-03-29 10:49:00,43.9,25.0,29.88,South,180,1.1,-999.0,47,-99.99,,,0.00,Acu-Link.com,2013-03-29 16:49:00,
2013-03-29 11:04:00,44.4,24.9,29.89,North,0,0.0,-999.0,46,-99.99,,,0.00,Acu-Link.com,2013-03-29 17:04:00,
2013-03-29 11:19:00,43.3,24.9,29.90,NW,315,0.0,-999.0,48,-99.99,,,0.00,Acu-Link.com,2013-03-29 17:19:00,
2013-03-29 11:34:00,47.3,24.8,29.88,West,270,4.2,-999.0,41,-99.99,,,0.00,Acu-Link.com,2013-03-29 17:34:00,
2013-03-29 11:49:00,48.7,23.0,29.90,NW,315,0.0,-999.0,36,-99.99,,,0.00,Acu-Link.com,2013-03-29 17:49:00,
2013-03-29 12:05:00,47.1,23.4,29.89,SSE,157,0.0,-999.0,39,-99.99,,,0.00,Acu-Link.com,2013-03-29 18:05:00,
2013-03-29 12:20:00,50.2,22.9,29.89,NNE,22,0.0,-999.0,34,-99.99,,,0.00,Acu-Link.com,2013-03-29 18:20:00,
2013-03-29 12:35:00,50.5,21.8,29.89,WNW,292,3.7,-999.0,32,-99.99,,,0.00,Acu-Link.com,2013-03-29 18:35:00,
2013-03-29 12:51:00,50.7,21.9,29.90,NNW,337,2.7,-999.0,32,-99.99,,,0.00,Acu-Link.com,2013-03-29 18:51:00,
2013-03-29 13:21:00,46.0,23.6,29.91,WNW,292,0.0,-999.0,41,-99.99,,,0.00,Acu-Link.com,2013-03-29 19:21:00,
2013-03-29 13:37:00,45.5,25.4,29.90,North,0,0.0,-999.0,45,-99.99,,,0.00,Acu-Link.com,2013-03-29 19:37:00,
2013-03-29 13:52:00,49.5,25.0,29.90,West,270,1.1,-999.0,38,-99.99,,,0.00,Acu-Link.com,2013-03-29 19:52:00,
2013-03-29 14:07:00,47.8,22.8,29.89,NW,315,1.1,-999.0,37,-99.99,,,0.00,Acu-Link.com,2013-03-29 20:07:00,
2013-03-29 14:22:00,48.7,23.6,29.89,East,90,2.7,-999.0,37,-99.99,,,0.00,Acu-Link.com,2013-03-29 20:22:00,
2013-03-29 14:38:00,49.3,23.5,29.89,West,270,0.0,-999.0,36,-99.99,,,0.00,Acu-Link.com,2013-03-29 20:38:00,
2013-03-29 14:53:00,47.7,24.6,29.89,WSW,247,3.7,-999.0,40,-99.99,,,0.00,Acu-Link.com,2013-03-29 20:53:00,
2013-03-29 15:08:00,46.6,26.4,29.90,West,270,3.2,-999.0,45,-99.99,,,0.00,Acu-Link.com,2013-03-29 21:08:00,
2013-03-29 15:24:00,44.6,28.1,29.89,NNW,337,1.7,-999.0,52,-99.99,,,0.00,Acu-Link.com,2013-03-29 21:24:00,
2013-03-29 15:39:00,47.1,27.9,29.88,NNW,337,0.0,-999.0,47,-99.99,,,0.00,Acu-Link.com,2013-03-29 21:39:00,
2013-03-29 15:54:00,45.7,26.1,29.88,WNW,292,5.3,-999.0,46,-99.99,,,0.00,Acu-Link.com,2013-03-29 21:54:00,
2013-03-29 16:10:00,47.1,26.3,29.87,WSW,247,1.1,-999.0,44,-99.99,,,0.00,Acu-Link.com,2013-03-29 22:10:00,
2013-03-29 16:25:00,46.6,25.3,29.89,NW,315,1.1,-999.0,43,-99.99,,,0.00,Acu-Link.com,2013-03-29 22:25:00,
2013-03-29 16:40:00,42.4,26.5,29.90,SSE,157,0.0,-999.0,53,-99.99,,,0.00,Acu-Link.com,2013-03-29 22:40:00,
2013-03-29 17:41:00,43.5,27.1,29.88,SW,225,1.1,-999.0,52,-99.99,,,0.00,Acu-Link.com,2013-03-29 23:41:00,
2013-03-29 17:56:00,42.1,26.7,29.86,West,270,1.7,-999.0,54,-99.99,,,0.00,Acu-Link.com,2013-03-29 23:56:00,
2013-03-29 18:12:00,41.5,26.1,29.86,NNE,22,1.1,-999.0,54,-99.99,,,0.00,Acu-Link.com,2013-03-30 00:12:00,
2013-03-29 18:27:00,40.8,25.0,29.87,NE,45,0.0,-999.0,53,-99.99,,,0.00,Acu-Link.com,2013-03-30 00:27:00,
2013-03-29 18:42:00,40.1,24.8,29.87,NNE,22,1.1,-999.0,54,-99.99,,,0.00,Acu-Link.com,2013-03-30 00:42:00,
2013-03-29 18:58:00,39.6,25.2,29.88,ESE,112,0.0,-999.0,56,-99.99,,,0.00,Acu-Link.com,2013-03-30 00:58:00,
2013-03-29 19:13:00,38.7,24.8,29.89,West,270,0.0,-999.0,57,-99.99,,,0.00,Acu-Link.com,2013-03-30 01:13:00,
2013-03-29 19:28:00,37.6,24.2,29.89,ENE,67,0.0,-999.0,58,-99.99,,,0.00,Acu-Link.com,2013-03-30 01:28:00,
2013-03-29 19:43:00,37.6,24.6,29.90,SSE,157,0.0,-999.0,59,-99.99,,,0.00,Acu-Link.com,2013-03-30 01:43:00,
2013-03-29 19:59:00,36.9,25.1,29.91,West,270,0.0,-999.0,62,-99.99,,,0.00,Acu-Link.com,2013-03-30 01:59:00,
2013-03-29 20:14:00,36.9,25.5,29.91,West,270,0.0,-999.0,63,-99.99,,,0.00,Acu-Link.com,2013-03-30 02:14:00,
2013-03-29 20:29:00,36.5,25.1,29.91,SSE,157,0.0,-999.0,63,-99.99,,,0.00,Acu-Link.com,2013-03-30 02:29:00,
2013-03-29 20:45:00,36.0,26.1,29.91,West,270,0.0,-999.0,67,-99.99,,,0.00,Acu-Link.com,2013-03-30 02:45:00,
2013-03-29 21:00:00,34.3,25.6,29.92,NE,45,0.0,-999.0,70,-99.99,,,0.00,Acu-Link.com,2013-03-30 03:00:00,
2013-03-29 21:15:00,33.4,25.4,29.92,West,270,0.0,-999.0,72,-99.99,,,0.00,Acu-Link.com,2013-03-30 03:15:00,
2013-03-29 21:30:00,33.8,25.4,29.93,SSW,202,0.0,-999.0,71,-99.99,,,0.00,Acu-Link.com,2013-03-30 03:30:00,
2013-03-29 21:46:00,33.1,25.1,29.93,SSW,202,0.0,-999.0,72,-99.99,,,0.00,Acu-Link.com,2013-03-30 03:46:00,
2013-03-29 22:01:00,31.8,24.8,29.93,NNW,337,0.0,-999.0,75,-99.99,,,0.00,Acu-Link.com,2013-03-30 04:01:00,
2013-03-29 22:16:00,30.7,23.7,29.93,NW,315,0.0,-999.0,75,-99.99,,,0.00,Acu-Link.com,2013-03-30 04:16:00,
2013-03-29 22:46:00,29.7,24.0,29.95,NE,45,0.0,-999.0,79,-99.99,,,0.00,Acu-Link.com,2013-03-30 04:46:00,
2013-03-29 23:02:00,29.3,23.3,29.94,West,270,0.0,-999.0,78,-99.99,,,0.00,Acu-Link.com,2013-03-30 05:02:00,
2013-03-29 23:32:00,28.9,23.5,29.93,West,270,0.0,-999.0,80,-99.99,,,0.00,Acu-Link.com,2013-03-30 05:32:00,
2013-03-29 23:48:00,28.9,23.5,29.92,West,270,0.0,-999.0,80,-99.99,,,0.00,Acu-Link.com,2013-03-30 05:48:00,